Location: Tel Aviv
(32.0670°N, 34.7670°E)
Time: 18:52:34
(UTC+03:00)

Vanguard 2 Rocket - Pass Details

Date: 24 January 2022
Orbit: 553 x 3323 km, 32.9° (Epoch: 24 May)

Event Time Altitude Azimuth Distance (km) Brightness Sun altitude
Exits shadow 00:06:26 15° 80° (E) 5,677 10.9 -76.9°
Drops below altitude 10° 00:08:48 10° 77° (ENE) 6,170 11.1 -76.7°
Sets 00:14:15 0° 72° (ENE) 7,302 11.6 -76.3°
